Погода в Кыштовке

Погода в Кыштовке : погода сейчас, прогноз погоды и архив. Всё, что Вы хотите узнать о погоде в Кыштовке!

Хотите узнать прогноз погоды в Кыштовке? Тогда Вам сюда: Погода в Кыштовке

Поиск расширенной информации на нашем сайте:

Другие новости

Новости СМИ2

Главная страница сайта

Новости сайта

02.10.2013

Напоминаем, что на нашем новом сайте вы можете получить высокодетализированные прогнозы погоды по пунктам России, СНГ и мира (включающие важные для авиации метеовеличины, такие как направление и скорость ветра, видимость, явления погоды, количество и форма облачности, нижняя и верхняя граница облачности), а также ознакомиться с разнообразными материалами по авиационной метеорологии и подборкой полезных ссылок на эту тему.

Сайт Метеоцентр.Азия посвящён разработке технологий оптимизации авиаметеорологического обслуживания, включая проектирование и перспективное создание нескольких автоматизированных авиаметеорологических систем:
- система выпуска высокодетальных прогностических карт явлений погоды для нижнего воздушного пространства по России и ближнему зарубежью;
- система верификации прогнозов TAF (выпускаемых синоптиками официальных АМСГ РФ и ближнего зарубежья) и AUTOTAF (выпускаемых сайтом Метеоцентр.Азия) - выявление ошибок, онлайн-сопоставление с фактической погодой METAR, автоматическое внесение коррективов в прогнозы при резком отклонении фактической погоды от прогноза, подсчёт оправдываемости прогнозов по элементам и в целом;
- система обработки, анализа и отображения авиаметеорологической информации для применения провайдерами метеорологической информации.

Рекомендуем: Надежно - crysis 3 условно-бесплатный - у нас дешевле.

Погода в Кыштовке - сегодня

Время (UTC), дата Ветер
(°,м/с) 
Видим.   Явления Облачность Т
(°С)
Тd
(°С)
f(%) Тe
(°С)
Pmin
(гПа)
dP
(гПа)
Po
(мм)
O2
(г/м3)
Тmin Tmax R s Состояние
почвы
09 15.01.17 140 (ЮВ) 10 км    10/0 средняя 
[Ac trans]
-20.6 -23.8 75 -21  1038.3  -0.5  767  336           
12 15.01.17 150 (ЮВ) 10 км    10/0 средняя 
[Ac trans]
-20.9 -23.9 77 -21  1038  -0.4  766  336    -20.6       
15 15.01.17 150 (ЮВ) 10 км    10/3 600 м кучево-дожд., средняя 
[Cb calv|Ac trans]
-19.7 -22.4 79 -22  1036.7  -1.2  765  334           
18 15.01.17 130 (ЮВ) 10 км    10/0 средняя 
[Ac trans]
-18.7 -21.3 80 -21  1036.8  0.2  766  333           
21 15.01.17 130 (ЮВ) 10 км    4/0 верхняя 
[Ci fib]
-24.9 -27.6 78 -25  1037.4  0.1  766  341           
00 16.01.17 110 (В) 10 км    5/0 верхняя 
[Cs]
-27.8 -31.1 73 -28  1037.5  766  345  -27.9      72  равномерный
сухой снег
100% 
03 16.01.17 140 (ЮВ) 10 км    10/6 300 м кучево-дожд., средняя, верхняя 
[Cb calv|Ac trans|Ci fib]
-21.1 -23.8 79 -21  1037.7  0.6  766  336           
06 16.01.17 140 (ЮВ) 10 км  в посл. час ливневой снег  8/4 600 м кучево-дожд., средняя, верхняя 
[Cb calv|Ac trans|Ci fib]
-18.6 -21.1 81 -19  1037.4  -0.1  766  333           
09 16.01.17 140 (ЮВ) 10 км    3/0 верхняя 
[Ci fib]
-15.6 -19.5 72 -16  1036.8  -0.5  766  329           
12 16.01.17 160 (Ю) 10 км    8/0 средняя 
[Ac trans]
-18.5 -21.3 79 -21  1037.2  0.3  766  333    -15.2  0.2     
15 16.01.17 170 (Ю) 10 км    3/0 средняя 
[Ac trans]
-23.5 -26.1 79 -24  1037.5  766  339           
18 16.01.17 110 (В) 10 км    3/0 верхняя 
[Ci fib]
-27 -30.3 73 -28  1037.5  -0.3  766  344           
21 16.01.17 180 (Ю) 10 км    10/0 средняя 
[As trans]
-24.2 -27.2 76 -25  1037.2  -0.1  766  340           
00 17.01.17 тихо ()   10 км    6/0 верхняя 
[Ci fib]
-24.9 -28 75 -25  1037.6  0.4  766  341  -27.2      72  равномерный
сухой снег
100% 
03 17.01.17 230 (ЮЗ) 10 км    6/0 верхняя 
[Ci fib]
-27.4 -30.6 74 -28  1037.9  0.1  766  345  -28         
06 17.01.17 210 (ЮЗ) 10 км    6/0 верхняя 
[Ci fib]
-21.5 -24.4 77 -22  1037.9  0.4  766  337           
09 17.01.17 120 (ЮВ) 10 км    3/0 верхняя 
[Ci fib]
-18.4 -21.2 79 -19  1037.6  -0.1  766  333           
12 17.01.17 150 (ЮВ) 10 км    4/0 верхняя 
[Ci fib]
-22.7 -25.2 80 -23  1038.5  0.6  767  339    -18.2       
15 17.01.17 140 (ЮВ) 10 км    3/0 верхняя 
[Ci fib]
-27.2 -30.4 74 -28  1038.9  0.1  767  345           
18 17.01.17 тихо ()   10 км    3/0 верхняя 
[Ci fib]
-27.3 -30.6 74 -27  1038.4  -0.5  766  345           
21 17.01.17 220 (ЮЗ) 10 км    ясно 
-27.3 -30.4 75 -28  1037.8  -0.6  766  345           
00 18.01.17 230 (ЮЗ) 10 км    3/0 верхняя 
[Ci fib]
-24.8 -27.7 77 -25  1036.9  -0.7  765  341  -28.5      72  равномерный
сухой снег
100% 
03 18.01.17 240 (ЮЗ) 10 км    3/0 верхняя 
[Ci fib]
-25.5 -28.6 75 -26  1036.7  -0.3  765  342           
06 18.01.17 210 (ЮЗ) 10 км    3/0 верхняя 
[Ci fib]
-19.4 -22.2 78 -20  1036.4  765  334           
09 18.01.17 230 (ЮЗ) 10 км    4/0 верхняя 
[Ci fib]
-16 -20.2 70 -18  1035.6  -0.5  765  329           
Время (UTC), дата Ветер
(°,м/с) 
Видим.   Явления Облачность Т
(°С)
Тd
(°С)
f(%) Тe
(°С)
Pmin
(гПа)
dP
(гПа)
Po
(мм)
O2
(г/м3)
Тmin Tmax R s Состояние
почвы

Для получения пояснительной информации подведите курсор к названию столбца.

ПОГОДА в Кыштовке - архив

Всё, что Вы хотите узнать о погоде в Кыштовке - удобно и подробно!

Выберите нужную дату (начиная с 1 января 2015* года) и нажмите кнопку "Найти".
Будут отображены архивные сводки погоды по пункту Кыштовка, начиная с указанной даты.


Отображать данные в формате CSV (для использования в таблицах Excel)


Внимание! Наш архив погоды предназначен исключительно для личного некоммерческого использования в познавательных целях. Если Вам необходимы официальные справки о состоянии погоды (для производственных, юридических, коммерческих и т.п. целей), обращайтесь в органы Росгидромета.

*Примечание: данная дата относится к архиву по метеостанциям СССР (Россия, СНГ, Балтия).
Архив по метеостанциям Зарубежной Европы и Азии (кроме Китая) хранится 10 дней, по другим регионам земного шара (Китай, Африка, Америка, Австралия, Океания) - 1 день.

Кыштовка - район местоположения метеостанции


Название, широта, долгота, высота метеостанции:
Кыштовка 56.6°ш. 76.9°д. 116 м над ур. моря [Российская Федерация]

Дополнительная информация

В oтличие oт бoльшинства пoгoдных сайтoв мы публикуем пoдрoбную метеoинфoрмацию в детальнoм прoфессиoнальнoм фoрмате.

Характеристики температуры и влажнoсти вoздуха измеряются на высoте 2 м в тени вдали oт зданий и деревьев.
Скoрoсть ветра измеряется на высoте 10 м (на урoвне рoста челoвека скoрoсть ветра ниже в 1.5-2 раза). Если метеoстанция нахoдится в гoрoде или в лесу, тo скoрoсть ветра занижена на 2-4 м/с пo сравнению с oткрытым местoм. Скoрoсть ветра над акватoриями крупных рек и oзёр, а также на вершинах хoлмoв на 2-5 м/с выше, чем в oбычных услoвиях.
Атмoсфернoе давление в разных тoчках местнoсти мoжет значительнo oтличаться oт давления на метеoстанции, в зависимoсти oт услoвий рельефа (при пoдъёме на 10 м давление пoнижается примернo на 1 мм рт.ст.).